Regional Weather Roundup
Issued by NWS

Current Version | Previous Version | Text Only | Print | Product List | Glossary On
Versions: 1 2 3 4 5 6 7 8 9 10 11 12 13 14 15 16 17 18 19 20 21 22 23 24 25 26 27 28 29 30 31 32 33 34 35 36 37 38 39 40 41 42 43 44 45 46 47 48 49 50
000
ASUS45 KBOI 020910
RWRID
WEATHER ROUNDUP FOR IDAHO
NATIONAL WEATHER SERVICE BOISE ID
300 AM MDT SAT AUG 02 2014

NOTE: "FAIR" INDICATES FEW OR NO CLOUDS BELOW 12000 FEET
WITH NO SIGNIFICANT WEATHER AND/OR OBSTRUCTIONS TO VISIBILITY

IDZ012-014-021000-
SOUTHWEST IDAHO


CITY           SKY/WX    TMP DP  RH WIND       PRES   REMARKS
BOISE          MOCLDY    76  47  35 SW3       30.04R
CALDWELL       NOT AVBL
MOUNTAIN HOME  CLOUDY    77  51  39 E14       30.04S
$$

IDZ016-017-021000-
SOUTHCENTRAL IDAHO


CITY           SKY/WX    TMP DP  RH WIND       PRES   REMARKS
BURLEY         MOCLDY    66  49  54 SE8       30.13S
JEROME         CLOUDY    66  52  60 W12       30.15R
TWIN FALLS     CLOUDY    71  48  43 E9        30.13S
$$

IDZ019>023-021000-
SOUTHEAST IDAHO


CITY           SKY/WX    TMP DP  RH WIND       PRES   REMARKS
IDAHO FALLS    PTCLDY    56  51  84 N8        30.20S
POCATELLO      CLEAR     57  50  77 SW3       30.17F
REXBURG        CLEAR     55  50  83 E3        30.22S
$$

IDZ006-010-011-018-031-032-021000-
CENTRAL IDAHO MOUNTAINS


CITY           SKY/WX    TMP DP  RH WIND       PRES   REMARKS
MCCALL         MOCLDY    65  46  50 CALM      30.17
HAILEY         PTCLDY    61  48  63 NW8       30.23F
STANLEY          N/A     54  42  64 E7        30.32S
SALMON         PTCLDY    55  52  88 SE3       30.17S
CHALLIS        PTCLDY    55  48  77 N5        30.23F
$$

IDZ002-004-006-007-026-021000-
NORTHERN IDAHO


CITY           SKY/WX    TMP DP  RH WIND       PRES   REMARKS
LEWISTON       CLOUDY    78  52  40 E7        29.92S
LOWELL           N/A     63  59  87 N3        30.03R
COEUR D`ALENE  PTCLDY    66  52  59 CALM      30.01S
MULLAN PASS    MOCLDY    60  43  53 E7G20     30.26S
$$



USA.gov is the U.S. government's official web portal to all federal, state and local government web resources and services.